Time,TemperatureF,DewpointF,PressureIn,WindDirection,WindDirectionDegrees,WindSpeedMPH,WindSpeedGustMPH,Humidity,HourlyPrecipIn,Conditions,Clouds,dailyrainin,SoftwareType,DateUTC
2013-05-01 00:02:00,76.0,10.0,29.59,WNW,298,9.0,14.0,8,0.00,,,0.00,,2013-05-01 06:02:00,
2013-05-01 00:11:00,76.0,10.0,29.59,WNW,298,9.0,14.0,8,0.00,,,0.00,,2013-05-01 06:11:00,
2013-05-01 00:22:00,75.0,10.0,29.60,WNW,299,7.0,10.0,8,0.00,,,0.00,,2013-05-01 06:22:00,
2013-05-01 00:32:00,76.0,10.0,29.59,NNW,331,14.0,22.0,8,0.00,,,0.00,,2013-05-01 06:32:00,
2013-05-01 00:42:00,76.0,10.0,29.59,NNW,331,14.0,22.0,8,0.00,,,0.00,,2013-05-01 06:42:00,
2013-05-01 00:52:00,75.0,10.0,29.59,NNW,331,7.0,13.0,8,0.00,,,0.00,,2013-05-01 06:52:00,
2013-05-01 01:01:00,75.0,12.0,29.60,NW,325,9.0,14.0,9,0.00,,,0.00,,2013-05-01 07:01:00,
2013-05-01 01:11:00,75.0,12.0,29.60,NW,325,9.0,14.0,9,0.00,,,0.00,,2013-05-01 07:11:00,
2013-05-01 01:21:00,75.0,12.0,29.60,NW,325,12.0,16.0,9,0.00,,,0.00,,2013-05-01 07:21:00,
2013-05-01 01:32:00,72.0,10.0,29.60,WNW,284,8.0,20.0,9,0.00,,,0.00,,2013-05-01 07:32:00,
2013-05-01 01:42:00,72.0,10.0,29.60,WNW,284,8.0,20.0,9,0.00,,,0.00,,2013-05-01 07:42:00,
2013-05-01 01:52:00,71.0,12.0,29.60,WNW,302,10.0,14.0,10,0.00,,,0.00,,2013-05-01 07:52:00,
2013-05-01 02:01:00,71.0,12.0,29.60,NW,317,11.0,15.0,10,0.00,,,0.00,,2013-05-01 08:01:00,
2013-05-01 02:11:00,71.0,12.0,29.60,NW,317,11.0,15.0,10,0.00,,,0.00,,2013-05-01 08:11:00,
2013-05-01 02:22:00,71.0,12.0,29.61,WNW,302,9.0,14.0,10,0.00,,,0.00,,2013-05-01 08:22:00,
2013-05-01 02:32:00,70.0,11.0,29.61,WNW,290,7.0,11.0,10,0.00,,,0.00,,2013-05-01 08:32:00,
2013-05-01 02:42:00,70.0,11.0,29.61,WNW,290,7.0,11.0,10,0.00,,,0.00,,2013-05-01 08:42:00,
2013-05-01 02:53:00,71.0,12.0,29.61,WNW,299,8.0,14.0,10,0.00,,,0.00,,2013-05-01 08:53:00,
2013-05-01 03:01:00,72.0,12.0,29.61,WNW,300,9.0,15.0,10,0.00,,,0.00,,2013-05-01 09:01:00,
2013-05-01 03:11:00,72.0,12.0,29.61,WNW,300,9.0,15.0,10,0.00,,,0.00,,2013-05-01 09:11:00,
2013-05-01 03:21:00,71.0,12.0,29.61,NW,308,8.0,11.0,10,0.00,,,0.00,,2013-05-01 09:21:00,
2013-05-01 03:33:00,70.0,13.0,29.62,NW,312,9.0,12.0,11,0.00,,,0.00,,2013-05-01 09:33:00,
2013-05-01 03:42:00,70.0,13.0,29.62,NW,312,9.0,12.0,11,0.00,,,0.00,,2013-05-01 09:42:00,
2013-05-01 03:53:00,69.0,12.0,29.62,WNW,300,8.0,11.0,11,0.00,,,0.00,,2013-05-01 09:53:00,
2013-05-01 04:02:00,68.0,12.0,29.63,West,275,8.0,10.0,11,0.00,,,0.00,,2013-05-01 10:02:00,
2013-05-01 04:12:00,68.0,12.0,29.63,West,275,8.0,10.0,11,0.00,,,0.00,,2013-05-01 10:12:00,
2013-05-01 04:22:00,66.0,12.0,29.63,West,267,8.0,11.0,12,0.00,,,0.00,,2013-05-01 10:22:00,
2013-05-01 04:33:00,65.0,11.0,29.64,West,267,8.0,13.0,12,0.00,,,0.00,,2013-05-01 10:33:00,
2013-05-01 04:42:00,65.0,11.0,29.64,West,267,8.0,13.0,12,0.00,,,0.00,,2013-05-01 10:42:00,
2013-05-01 04:53:00,64.0,12.0,29.65,West,276,8.0,11.0,13,0.00,,,0.00,,2013-05-01 10:53:00,
2013-05-01 05:02:00,64.0,12.0,29.65,West,276,8.0,11.0,13,0.00,,,0.00,,2013-05-01 11:02:00,
2013-05-01 05:11:00,64.0,12.0,29.65,West,276,8.0,11.0,13,0.00,,,0.00,,2013-05-01 11:11:00,
2013-05-01 05:22:00,66.0,14.0,29.65,WNW,290,9.0,12.0,13,0.00,,,0.00,,2013-05-01 11:22:00,
2013-05-01 05:32:00,65.0,13.0,29.66,WNW,290,9.0,11.0,13,0.00,,,0.00,,2013-05-01 11:32:00,
2013-05-01 05:42:00,65.0,13.0,29.66,WNW,290,9.0,11.0,13,0.00,,,0.00,,2013-05-01 11:42:00,
2013-05-01 05:52:00,64.0,12.0,29.66,WNW,292,7.0,10.0,13,0.00,,,0.00,,2013-05-01 11:52:00,
2013-05-01 06:01:00,64.0,12.0,29.67,NW,306,5.0,9.0,13,0.00,,,0.00,,2013-05-01 12:01:00,
2013-05-01 06:11:00,64.0,12.0,29.67,NW,306,5.0,9.0,13,0.00,,,0.00,,2013-05-01 12:11:00,
2013-05-01 06:21:00,65.0,13.0,29.67,NW,326,5.0,7.0,13,0.00,,,0.00,,2013-05-01 12:21:00,
2013-05-01 06:31:00,64.0,12.0,29.68,WNW,299,5.0,8.0,13,0.00,,,0.00,,2013-05-01 12:31:00,
2013-05-01 06:41:00,64.0,12.0,29.68,WNW,299,5.0,8.0,13,0.00,,,0.00,,2013-05-01 12:41:00,
2013-05-01 06:52:00,63.0,13.0,29.70,ESE,103,1.0,6.0,14,0.00,,,0.00,,2013-05-01 12:52:00,
2013-05-01 07:01:00,62.0,14.0,29.70,ESE,117,8.0,10.0,15,0.00,,,0.00,,2013-05-01 13:01:00,
2013-05-01 07:11:00,62.0,14.0,29.70,ESE,117,8.0,10.0,15,0.00,,,0.00,,2013-05-01 13:11:00,
2013-05-01 07:21:00,64.0,14.0,29.71,East,93,11.0,14.0,14,0.00,,,0.00,,2013-05-01 13:21:00,
2013-05-01 07:32:00,62.0,14.0,29.72,ESE,115,9.0,12.0,15,0.00,,,0.00,,2013-05-01 13:32:00,
2013-05-01 07:42:00,62.0,14.0,29.72,ESE,115,9.0,12.0,15,0.00,,,0.00,,2013-05-01 13:42:00,
2013-05-01 07:52:00,63.0,13.0,29.73,SE,142,6.0,8.0,14,0.00,,,0.00,,2013-05-01 13:52:00,
2013-05-01 08:02:00,65.0,15.0,29.73,SE,136,1.0,4.0,14,0.00,,,0.00,,2013-05-01 14:02:00,
2013-05-01 08:11:00,65.0,15.0,29.73,SE,136,1.0,4.0,14,0.00,,,0.00,,2013-05-01 14:11:00,
2013-05-01 08:21:00,64.0,14.0,29.73,SE,146,1.0,4.0,14,0.00,,,0.00,,2013-05-01 14:21:00,
2013-05-01 08:32:00,65.0,13.0,29.74,WSW,240,5.0,7.0,13,0.00,,,0.00,,2013-05-01 14:32:00,
2013-05-01 08:42:00,65.0,13.0,29.74,WSW,240,5.0,7.0,13,0.00,,,0.00,,2013-05-01 14:42:00,
2013-05-01 08:52:00,65.0,15.0,29.75,WSW,237,4.0,6.0,14,0.00,,,0.00,,2013-05-01 14:52:00,
2013-05-01 09:01:00,66.0,15.0,29.75,SW,221,2.0,7.0,14,0.00,,,0.00,,2013-05-01 15:01:00,
2013-05-01 09:11:00,66.0,15.0,29.75,SW,221,2.0,7.0,14,0.00,,,0.00,,2013-05-01 15:11:00,
2013-05-01 09:21:00,67.0,16.0,29.75,SW,220,3.0,6.0,14,0.00,,,0.00,,2013-05-01 15:21:00,
2013-05-01 09:33:00,68.0,15.0,29.75,SSW,207,6.0,7.0,13,0.00,,,0.00,,2013-05-01 15:33:00,
2013-05-01 09:43:00,68.0,15.0,29.75,SSW,207,6.0,7.0,13,0.00,,,0.00,,2013-05-01 15:43:00,
2013-05-01 09:53:00,68.0,15.0,29.76,SSW,213,7.0,11.0,13,0.00,,,0.00,,2013-05-01 15:53:00,
2013-05-01 10:03:00,69.0,14.0,29.76,SSW,194,8.0,14.0,12,0.00,,,0.00,,2013-05-01 16:03:00,
2013-05-01 10:12:00,69.0,14.0,29.76,SSW,194,8.0,14.0,12,0.00,,,0.00,,2013-05-01 16:12:00,
2013-05-01 10:22:00,71.0,14.0,29.77,WSW,248,8.0,12.0,11,0.00,,,0.00,,2013-05-01 16:22:00,
2013-05-01 10:32:00,72.0,15.0,29.77,West,261,9.0,13.0,11,0.00,,,0.00,,2013-05-01 16:32:00,
2013-05-01 10:42:00,72.0,15.0,29.77,West,261,9.0,13.0,11,0.00,,,0.00,,2013-05-01 16:42:00,
2013-05-01 10:53:00,73.0,15.0,29.77,WSW,254,9.0,14.0,11,0.00,,,0.00,,2013-05-01 16:53:00,
2013-05-01 11:02:00,73.0,15.0,29.76,SW,218,10.0,15.0,11,0.00,,,0.00,,2013-05-01 17:02:00,
2013-05-01 11:12:00,73.0,15.0,29.76,SW,218,10.0,15.0,11,0.00,,,0.00,,2013-05-01 17:12:00,
2013-05-01 11:21:00,74.0,18.0,29.76,SW,229,10.0,20.0,12,0.00,,,0.00,,2013-05-01 17:21:00,
2013-05-01 11:32:00,75.0,17.0,29.75,West,265,18.0,26.0,11,0.00,,,0.00,,2013-05-01 17:32:00,
2013-05-01 11:42:00,75.0,17.0,29.75,West,265,18.0,26.0,11,0.00,,,0.00,,2013-05-01 17:42:00,
2013-05-01 11:52:00,76.0,16.0,29.75,WNW,298,12.0,24.0,10,0.00,,,0.00,,2013-05-01 17:52:00,
2013-05-01 12:01:00,75.0,12.0,29.75,WNW,288,13.0,32.0,9,0.00,,,0.00,,2013-05-01 18:01:00,
2013-05-01 12:11:00,75.0,12.0,29.75,WNW,288,13.0,32.0,9,0.00,,,0.00,,2013-05-01 18:11:00,
2013-05-01 12:22:00,77.0,11.0,29.75,WNW,286,15.0,25.0,8,0.00,,,0.00,,2013-05-01 18:22:00,
2013-05-01 12:32:00,76.0,13.0,29.74,West,277,20.0,25.0,9,0.00,,,0.00,,2013-05-01 18:32:00,
2013-05-01 12:41:00,76.0,13.0,29.74,West,277,20.0,25.0,9,0.00,,,0.00,,2013-05-01 18:41:00,
2013-05-01 12:52:00,77.0,11.0,29.75,WNW,294,18.0,30.0,8,0.00,,,0.00,,2013-05-01 18:52:00,
2013-05-01 13:02:00,78.0,12.0,29.75,WNW,293,13.0,23.0,8,0.00,,,0.00,,2013-05-01 19:02:00,
2013-05-01 13:11:00,78.0,12.0,29.75,WNW,293,13.0,23.0,8,0.00,,,0.00,,2013-05-01 19:11:00,
2013-05-01 13:22:00,79.0,13.0,29.74,West,276,19.0,25.0,8,0.00,,,0.00,,2013-05-01 19:22:00,
2013-05-01 13:32:00,78.0,12.0,29.74,WNW,285,7.0,22.0,8,0.00,,,0.00,,2013-05-01 19:32:00,
2013-05-01 13:43:00,78.0,12.0,29.74,WNW,285,7.0,22.0,8,0.00,,,0.00,,2013-05-01 19:43:00,
2013-05-01 13:52:00,78.0,12.0,29.74,West,267,9.0,25.0,8,0.00,,,0.00,,2013-05-01 19:52:00,
2013-05-01 14:01:00,77.0,11.0,29.74,West,268,20.0,32.0,8,0.00,,,0.00,,2013-05-01 20:01:00,
2013-05-01 14:11:00,77.0,11.0,29.74,West,268,20.0,32.0,8,0.00,,,0.00,,2013-05-01 20:11:00,
2013-05-01 14:21:00,78.0,9.0,29.73,WSW,250,23.0,32.0,7,0.00,,,0.00,,2013-05-01 20:21:00,
2013-05-01 14:32:00,79.0,10.0,29.73,WNW,290,22.0,29.0,7,0.00,,,0.00,,2013-05-01 20:32:00,
2013-05-01 14:42:00,79.0,10.0,29.73,WNW,290,22.0,29.0,7,0.00,,,0.00,,2013-05-01 20:42:00,
2013-05-01 14:52:00,79.0,10.0,29.74,WNW,283,14.0,26.0,7,0.00,,,0.00,,2013-05-01 20:52:00,
2013-05-01 15:01:00,79.0,6.0,29.74,WNW,301,18.0,32.0,6,0.00,,,0.00,,2013-05-01 21:01:00,
2013-05-01 15:11:00,79.0,6.0,29.74,WNW,301,18.0,32.0,6,0.00,,,0.00,,2013-05-01 21:11:00,
2013-05-01 15:22:00,78.0,6.0,29.73,West,278,22.0,29.0,6,0.00,,,0.00,,2013-05-01 21:22:00,
2013-05-01 15:32:00,79.0,2.0,29.73,West,279,19.0,29.0,5,0.00,,,0.00,,2013-05-01 21:32:00,
2013-05-01 15:43:00,79.0,2.0,29.73,West,279,19.0,29.0,5,0.00,,,0.00,,2013-05-01 21:43:00,
2013-05-01 15:53:00,79.0,2.0,29.72,WNW,285,21.0,31.0,5,0.00,,,0.00,,2013-05-01 21:53:00,
2013-05-01 16:03:00,79.0,6.0,29.71,West,277,28.0,34.0,6,0.00,,,0.00,,2013-05-01 22:03:00,
2013-05-01 16:12:00,79.0,6.0,29.71,West,277,28.0,34.0,6,0.00,,,0.00,,2013-05-01 22:12:00,
2013-05-01 16:23:00,79.0,6.0,29.71,West,279,21.0,33.0,6,0.00,,,0.00,,2013-05-01 22:23:00,
2013-05-01 16:33:00,79.0,10.0,29.71,West,259,16.0,34.0,7,0.00,,,0.00,,2013-05-01 22:33:00,
2013-05-01 16:42:00,79.0,10.0,29.71,West,259,16.0,34.0,7,0.00,,,0.00,,2013-05-01 22:42:00,
2013-05-01 16:53:00,82.0,8.0,29.71,West,281,17.0,25.0,6,0.00,,,0.00,,2013-05-01 22:53:00,
2013-05-01 17:02:00,80.0,7.0,29.71,WNW,295,19.0,29.0,6,0.00,,,0.00,,2013-05-01 23:02:00,
2013-05-01 17:12:00,80.0,7.0,29.71,WNW,295,19.0,29.0,6,0.00,,,0.00,,2013-05-01 23:12:00,
2013-05-01 17:21:00,80.0,7.0,29.70,WNW,284,20.0,30.0,6,0.00,,,0.00,,2013-05-01 23:21:00,
2013-05-01 17:32:00,81.0,4.0,29.70,West,269,22.0,29.0,5,0.00,,,0.00,,2013-05-01 23:32:00,
2013-05-01 17:42:00,81.0,4.0,29.70,West,269,22.0,29.0,5,0.00,,,0.00,,2013-05-01 23:42:00,
2013-05-01 17:52:00,81.0,4.0,29.70,West,272,25.0,32.0,5,0.00,,,0.00,,2013-05-01 23:52:00,
2013-05-01 18:01:00,80.0,3.0,29.70,West,259,19.0,28.0,5,0.00,,,0.00,,2013-05-02 00:01:00,
2013-05-01 18:11:00,80.0,3.0,29.70,West,259,19.0,28.0,5,0.00,,,0.00,,2013-05-02 00:11:00,
2013-05-01 18:21:00,81.0,4.0,29.70,West,279,22.0,30.0,5,0.00,,,0.00,,2013-05-02 00:21:00,
2013-05-01 18:32:00,80.0,3.0,29.71,West,279,21.0,26.0,5,0.00,,,0.00,,2013-05-02 00:32:00,
2013-05-01 18:41:00,80.0,3.0,29.71,West,279,21.0,26.0,5,0.00,,,0.00,,2013-05-02 00:41:00,
2013-05-01 18:52:00,80.0,3.0,29.71,WNW,288,19.0,25.0,5,0.00,,,0.00,,2013-05-02 00:52:00,
2013-05-01 19:01:00,79.0,6.0,29.71,West,278,20.0,26.0,6,0.00,,,0.00,,2013-05-02 01:01:00,
2013-05-01 19:11:00,79.0,6.0,29.71,West,278,20.0,26.0,6,0.00,,,0.00,,2013-05-02 01:11:00,
2013-05-01 19:21:00,80.0,7.0,29.72,WNW,284,22.0,29.0,6,0.00,,,0.00,,2013-05-02 01:21:00,
2013-05-01 19:32:00,79.0,6.0,29.72,West,275,21.0,26.0,6,0.00,,,0.00,,2013-05-02 01:32:00,
2013-05-01 19:42:00,79.0,6.0,29.72,West,275,21.0,26.0,6,0.00,,,0.00,,2013-05-02 01:42:00,
2013-05-01 19:52:00,79.0,6.0,29.72,West,275,21.0,26.0,6,0.00,,,0.00,,2013-05-02 01:52:00,
2013-05-01 20:02:00,79.0,6.0,29.72,West,277,21.0,25.0,6,0.00,,,0.00,,2013-05-02 02:02:00,
2013-05-01 20:12:00,79.0,6.0,29.72,West,277,21.0,25.0,6,0.00,,,0.00,,2013-05-02 02:12:00,
2013-05-01 20:21:00,78.0,9.0,29.73,West,267,19.0,25.0,7,0.00,,,0.00,,2013-05-02 02:21:00,
2013-05-01 20:32:00,78.0,9.0,29.74,West,279,19.0,22.0,7,0.00,,,0.00,,2013-05-02 02:32:00,
2013-05-01 20:42:00,78.0,9.0,29.74,West,279,19.0,22.0,7,0.00,,,0.00,,2013-05-02 02:42:00,
2013-05-01 20:51:00,78.0,9.0,29.74,West,279,19.0,22.0,7,0.00,,,0.00,,2013-05-02 02:51:00,
2013-05-01 21:01:00,77.0,5.0,29.75,West,273,18.0,20.0,6,0.00,,,0.00,,2013-05-02 03:01:00,
2013-05-01 21:11:00,77.0,5.0,29.75,West,273,18.0,20.0,6,0.00,,,0.00,,2013-05-02 03:11:00,
2013-05-01 21:22:00,76.0,4.0,29.76,West,273,17.0,22.0,6,0.00,,,0.00,,2013-05-02 03:22:00,
2013-05-01 21:33:00,76.0,4.0,29.77,WNW,283,14.0,20.0,6,0.00,,,0.00,,2013-05-02 03:33:00,
2013-05-01 21:43:00,76.0,4.0,29.77,WNW,283,14.0,20.0,6,0.00,,,0.00,,2013-05-02 03:43:00,
2013-05-01 21:53:00,75.0,7.0,29.78,West,263,8.0,13.0,7,0.00,,,0.00,,2013-05-02 03:53:00,
2013-05-01 22:03:00,75.0,7.0,29.79,WSW,255,7.0,9.0,7,0.00,,,0.00,,2013-05-02 04:03:00,
2013-05-01 22:12:00,75.0,7.0,29.79,WSW,255,7.0,9.0,7,0.00,,,0.00,,2013-05-02 04:12:00,
2013-05-01 22:23:00,74.0,6.0,29.79,WNW,284,7.0,9.0,7,0.00,,,0.00,,2013-05-02 04:23:00,
2013-05-01 22:33:00,74.0,6.0,29.79,WSW,256,7.0,14.0,7,0.00,,,0.00,,2013-05-02 04:33:00,
2013-05-01 22:42:00,74.0,6.0,29.79,WSW,256,7.0,14.0,7,0.00,,,0.00,,2013-05-02 04:42:00,
2013-05-01 22:52:00,74.0,6.0,29.80,West,266,6.0,10.0,7,0.00,,,0.00,,2013-05-02 04:52:00,
2013-05-01 23:02:00,75.0,7.0,29.80,West,281,8.0,14.0,7,0.00,,,0.00,,2013-05-02 05:02:00,
2013-05-01 23:12:00,75.0,7.0,29.80,West,281,8.0,14.0,7,0.00,,,0.00,,2013-05-02 05:12:00,
2013-05-01 23:22:00,75.0,7.0,29.81,WNW,296,9.0,14.0,7,0.00,,,0.00,,2013-05-02 05:22:00,
2013-05-01 23:32:00,74.0,9.0,29.81,WNW,290,10.0,15.0,8,0.00,,,0.00,,2013-05-02 05:32:00,
2013-05-01 23:42:00,74.0,9.0,29.81,WNW,290,10.0,15.0,8,0.00,,,0.00,,2013-05-02 05:42:00,
2013-05-01 23:52:00,74.0,6.0,29.80,NW,309,14.0,18.0,7,0.00,,,0.00,,2013-05-02 05:52:00,